STARLINK-3135 (49424 NORAD) Tracking and Keplerian Element Data

This shows tracking and keplerian element data for the satellite.

Feedback or suggestion? Click here.




ElementValue
Catalog49424
NameSTARLINK-3135
Epoch Orbit366
Epoch Day15.91668981
Epoch Year2022
RAAN185.3603
Inclination53.2174
Eccentricity0.0001346
Argument of Perigee59.1551
Mean Anonmoly24.9295
Mean Motion15.25011309
Decay Rate-0.00654137
L11 49424U 21104S 22015.91668981 -.00654137 00000+0 -27860-1 0 9990
L22 49424 53.2174 185.3603 0001346 59.1551 24.9295 15.25011309 3666

Live tracking and technical data element details for STARLINK-3135 (NORAD 49424). STARLINK-3135 can be tracked NOW for your location showing map with azimuth and elevation plus other details from your city location.

Track the satellite on the map from your city or location and see movement details for azimuth, elevation, latitude, longitude, range, height, and movement on the map or in text.







IsCatalogInMostPopularTable: catalog: 49424, numindb: 5
Update: records affected: 1



GetName: 49424 STARLINK-3135

Hit Count: updated at: Thu, 20 Jan 2022 17:33:29 GMT